{"data":{"norad_id":53253,"intl_designator":"2022-086M","name":"STARLINK-4133","alt_names":[],"object_type":"PAYLOAD","status":"ACTIVE","operator":null,"country":"US","launch_date":"2022-07-24","launch_site_code":"AFETR","launch_vehicle":null,"mission":null,"orbit_class":"UNKNOWN","rcs_meters":null,"size_class":null,"mass_kg":null,"dimensions":null,"purposes":["comms"],"wikipedia_slug":null,"has_3d_model":false,"image_url":null,"decayed_at":null,"tle_current":{"epoch":"2026-09-19T23:11:17.760192Z","epoch_age_seconds":121524,"freshness":"FRESH","line1":"1 53253U 22086M   26262.96617778 -.00002776  00000+0 -73095-4 0  9996","line2":"2 53253  53.1623  27.8534 0001639  49.8517 310.2628 15.33546109230589","mean_motion":15.33546109,"eccentricity":0.0001639,"inclination_deg":53.1623,"raan_deg":27.8534,"arg_perigee_deg":49.8517,"mean_anomaly_deg":310.2628,"bstar":-7.3095e-5,"rev_number":23058,"period_min":93.900013279614,"perigee_km":464.12073188153,"apogee_km":466.36399163632,"semimajor_km":6843.3793617589,"source":"CELESTRAK","updated_at":"2026-09-20T09:00:40.214592Z"}}}